Погода в Страшенах

Молдова     47˚08′41″N   28˚36′50″E
темп.,
°C
ветер,
м/с
пор.,
м/с
влажн.,
%
обл.,
%
осадки,
мм/ч
давл.,
гПа
погр.,
м
6 декабря, вс
вс623:00+2˚вюв488799 0.0 1027387
02:00+1˚вюв4787100 0.0 1028372
05:00+1˚вюв4884100 0.0 1028380
08:00+1˚вюв5783100 0.0 1028512
11:00вюв5765100 0.0 1029451
14:00+1˚вюв5766100 0.0 1028713
17:00вюв486246 0.0 1028450
20:00−2˚вюв4105722 0.0 1028411
7 декабря, пн
пн723:00−2˚вюв410550 0.0 1028398
02:00−3˚вюв49580 0.0 1028401
05:00−4˚вюв5106628 0.0 1027427
08:00−5˚вюв5106952 0.0 1027469
11:00−3˚вюв686337 0.0 1027637
14:00−2˚вюв586465 0.0 1025767
17:00−3˚в588799 0.0 1025506
20:00−2˚в71291100 0.3 1024531
8 декабря, вт
вт823:00−2˚в6128199 0.1 1023504
02:00−2˚в6118698 0.1 1023488
05:00−2˚в71183100 0.0 1022499
08:00−2˚в71189100 0.1 1022423
11:00в6117996 0.0 1022465
14:00в587995 0.0 1022524
17:00−1˚всв5887100 0.1 1022394
20:00−1˚всв5985100 0.1 1023405
9 декабря, ср
ср923:00−1˚всв4884100 0.0 1023388
02:00−1˚всв5885100 0.0 1023343
05:00−1˚всв4787100 0.0 1022348
08:00−1˚в4789100 0.0 1022371
11:00всв3487100 0.0 1022338
14:00в3684100 0.0 1021328
17:00+1˚в3689100 0.0 1021286
20:00+1˚в399396 0.0 1020345
10 декабря, чт
чт1023:00+2˚вюв3997100 0.0 1020342
02:00+2˚в41098100 0.0 1019308
05:00+3˚вюв41098100 0.3 1017328
08:00+5˚вюв41598100 1.2 1016473
11:00+8˚юв71598100 2.3 1016621
14:00+9˚юв71491100 3.1 1015689
17:00+10˚юв101792100 1.7 1015724
20:00+9˚юв81694100 2.3 1015679